This is the latest recevied weather packets stored in our database for station/object N5GC-2. If no packets are shown the sender has not sent any weather packets the latest 10 day(s).
| Time | Temp. | Humidity | Pressure | Rain* | Wind** | Luminosity | Snow |
|---|---|---|---|---|---|---|---|
| 1777673612 | 22.78° C | 30% | - | 0 mm | - | - | - |
| 1777673310 | 22.78° C | 29% | - | 0 mm | - | - | - |
| 1777672399 | 22.78° C | 30% | - | 0 mm | - | - | - |
| 1777672095 | 23.33° C | 32% | - | 0 mm | - | - | - |
| 1777671790 | 23.33° C | 32% | - | 0 mm | - | - | - |
| 1777671487 | 23.33° C | 32% | - | 0 mm | - | - | - |
| 1777671183 | 23.89° C | 31% | - | 0 mm | - | - | - |
| 1777670879 | 23.89° C | 30% | - | 0 mm | - | - | - |
| 1777670576 | 23.89° C | 31% | - | 0 mm | - | - | - |
| 1777670273 | 24.44° C | 27% | - | 0 mm | - | - | - |
| 1777669970 | 24.44° C | 33% | - | 0 mm | - | - | - |
| 1777669667 | 25° C | 32% | - | 0 mm | - | - | - |
| 1777669363 | 25° C | 28% | - | 0 mm | - | - | - |
| 1777669060 | 25° C | 33% | - | 0 mm | - | - | - |
| 1777668151 | 25° C | 30% | - | 0 mm | - | - | - |
| 1777667847 | 24.44° C | 30% | - | 0 mm | - | - | - |
| 1777667545 | 24.44° C | 28% | - | 0 mm | - | - | - |
| 1777667241 | 24.44° C | 30% | - | 0 mm | - | - | - |
| 1777666938 | 24.44° C | 27% | - | 0 mm | - | - | - |
| 1777666635 | 23.89° C | 27% | - | 0 mm | - | - | - |
| 1777666332 | 23.89° C | 32% | - | 0 mm | - | - | - |
| 1777666028 | 23.89° C | 29% | - | 0 mm | - | - | - |
| 1777665726 | 23.33° C | 31% | - | 0 mm | - | - | - |
| 1777665423 | 23.33° C | 28% | - | 0 mm | - | - | - |
| 1777665119 | 23.33° C | 29% | - | 0 mm | - | - | - |
* Rain latest hour (hover to see other rain measurements)
** Current wind speed in m/s (hover to see current wind gust speed)